Waarnemingen

Advertentie
Mijn weer
Hemavan A, Zweden (2101): temperatuur & dauwpunt: 22.10.2020 00:00:00 - 28.10.2020 00:00:00 (CET)Hemavan A, Zweden (2101): windsnelheid: 22.10.2020 00:00:00 - 28.10.2020 00:00:00 (CET)Hemavan A, Zweden (2101): windrichting: 22.10.2020 00:00:00 - 28.10.2020 00:00:00 (CET)Hemavan A, Zweden (2101): luchtdruk: 22.10.2020 00:00:00 - 28.10.2020 00:00:00 (CET)Hemavan A, Zweden (2101): zicht: 22.10.2020 00:00:00 - 28.10.2020 00:00:00 (CET)
Datum & Tijd tt [°C] td [°C] ff [km/u] ff [kn] dd ppp [hPa] vv [km]
28.10.2020 00:00:00 0,9 0,6 4 2 O 994,2 50
27.10.2020 23:00:00 1,0 0,4 0 0 N 994,3 50
27.10.2020 22:00:00 1,5 1,2 7 4 OZO 994,5 45
27.10.2020 21:00:00 0,6 0,3 4 2 ZZO 994,5 21
27.10.2020 20:00:00 0,9 0,6 0 0 N 994,4 8
27.10.2020 19:00:00 1,1 0,8 0 0 N 994,5 45
27.10.2020 18:00:00 1,3 0,7 7 4 O 994,4 50
27.10.2020 17:00:00 1,5 0,9 7 4 O 994,2 50
27.10.2020 16:00:00 1,6 1,0 11 6 OZO 994,3 50
27.10.2020 15:00:00 1,8 1,2 7 4 O 994,4 11
27.10.2020 14:00:00 2,2 1,0 4 2 OZO 994,5 50
27.10.2020 13:00:00 2,1 0,9 4 2 O 994,8 50
27.10.2020 12:00:00 0,9 0,0 4 2 NNW 995,5 50
27.10.2020 11:00:00 0,4 -0,2 4 2 NNW 996,0 50
27.10.2020 10:00:00 -0,2 -0,6 7 4 NW 996,6 50
27.10.2020 09:00:00 -0,8 -1,2 0 0 N 997,3 50
27.10.2020 08:00:00 -1,1 -1,7 4 2 N 997,8 30
27.10.2020 07:00:00 -1,0 -1,6 4 2 ONO 998,1 50
27.10.2020 06:00:00 -2,1 -2,7 4 2 OZO 998,9 45
27.10.2020 05:00:00 -2,3 -2,9 7 4 WNW 999,7 50
27.10.2020 04:00:00 -3,0 -4,0 4 2 ONO 999,9 50
27.10.2020 03:00:00 -1,8 -2,6 7 4 N 999,9 50
27.10.2020 02:00:00 -1,8 -2,4 11 6 O 1000,8 50
27.10.2020 01:00:00 -1,5 -2,1 11 6 ZO 1001,1 50
27.10.2020 00:00:00 -1,5 -1,8 7 4 O 1001,0 50
26.10.2020 23:00:00 -1,7 -2,0 0 0 N 1001,4 50
26.10.2020 22:00:00 -2,1 -2,4 7 4 N 1001,1 50
26.10.2020 21:00:00 -3,1 -3,5 4 2 NW 1000,8 40
26.10.2020 20:00:00 -4,7 -5,1 7 4 WNW 1000,5 40
26.10.2020 19:00:00 -3,1 -3,4 7 4 NW 1000,0 0,6
26.10.2020 18:00:00 -1,9 -2,2 0 0 N 999,5 50
26.10.2020 17:00:00 -0,9 -1,5 0 0 N 998,8 50
26.10.2020 16:00:00 0,7 -0,5 11 6 OZO 998,2 50
26.10.2020 15:00:00 1,1 -0,1 11 6 O 997,8 50
26.10.2020 14:00:00 1,0 0,0 11 6 O 997,4 50
26.10.2020 13:00:00 1,3 -0,2 4 2 NO 997,2 50
26.10.2020 12:00:00 0,4 -0,2 7 4 ZO 997,2 50
26.10.2020 11:00:00 -0,5 -0,6 7 4 ZO 997,5 50
26.10.2020 10:00:00 -1,5 -1,6 7 4 O 997,2 50
26.10.2020 09:00:00 -1,5 -1,8 14 8 O 997,3 50
26.10.2020 08:00:00 -5,4 -5,9 4 2 O 997,4 23
26.10.2020 07:00:00 -4,0 -4,4 4 2 OZO 997,3 24
26.10.2020 06:00:00 -4,0 -4,3 4 2 Z 997,3 9
26.10.2020 05:00:00 -2,3 -2,4 4 2 O 996,6 50
26.10.2020 04:00:00 -1,1 -1,4 4 2 ZZW 996,2 50
26.10.2020 03:00:00 -1,0 -1,3 11 6 Z 995,8 50
26.10.2020 02:00:00 -0,5 -0,8 4 2 ZO 995,9 50
26.10.2020 01:00:00 0,2 -0,1 4 2 O 995,3 50
26.10.2020 00:00:00 0,8 0,2 4 2 OZO 994,7 50
25.10.2020 23:00:00 1,2 0,3 11 6 OZO 994,1 16
25.10.2020 22:00:00 1,5 0,3 0 0 N 992,6 45
25.10.2020 21:00:00 1,2 0,3 22 12 ZZO 992,3 4,5
25.10.2020 20:00:00 1,8 -0,1 25 14 ZZO 991,6 11
25.10.2020 19:00:00 2,5 -0,9 43 23 ZO 991,8 16
25.10.2020 18:00:00 1,4 -1,0 18 10 Z 993,0 16
25.10.2020 17:00:00 1,0 -1,9 22 12 ZZO 994,2 8
25.10.2020 16:00:00 0,9 -2,3 29 16 ZZO 994,8 3,4
25.10.2020 15:00:00 0,0 -3,2 50 27 ZO 994,2 3,7
25.10.2020 14:00:00 -0,1 -2,6 43 23 ZO 995,1 1,6
25.10.2020 13:00:00 0,0 -3,4 40 21 ZO 996,4 1,9
25.10.2020 12:00:00 -0,3 -3,5 43 23 ZO 997,8 1,4
25.10.2020 11:00:00 -0,4 -3,4 32 18 ZO 998,8 2,9
25.10.2020 10:00:00 -1,3 -4,0 29 16 ZZO 1000,4 1,8
25.10.2020 09:00:00 -0,8 -4,3 25 14 ZO 1001,1 3,3
25.10.2020 08:00:00 -1,4 -5,1 29 16 ZO 1001,7 50
25.10.2020 07:00:00 -1,7 -4,9 22 12 ZZO 1001,8 50
25.10.2020 06:00:00 -2,7 -5,2 18 10 ZZO 1002,2 50
25.10.2020 05:00:00 -7,8 -8,9 7 4 NNW 1003,3 50
25.10.2020 04:00:00 -8,2 -9,1 4 2 NW 1003,6 50
25.10.2020 03:00:00 -8,7 -9,8 7 4 NNW 1003,8 50
25.10.2020 02:00:00 -9,6 -10,5 7 4 W 1004,8 50
25.10.2020 01:00:00 - - - - - - -
25.10.2020 00:00:00 -10,8 -12,1 4 2 NO 1005,5 50
24.10.2020 23:00:00 -9,4 -10,3 4 2 N 1005,1 50
24.10.2020 22:00:00 -10,2 -11,2 4 2 O 1005,0 50
24.10.2020 21:00:00 -9,9 -11,0 4 2 ZO 1004,9 50
24.10.2020 20:00:00 -9,9 -11,0 4 2 ZO 1004,7 50
24.10.2020 19:00:00 -9,4 -10,1 4 2 ZZO 1004,8 50
24.10.2020 18:00:00 -7,7 -8,6 4 2 OZO 1004,7 50
24.10.2020 17:00:00 -7,1 -7,9 0 0 N 1003,9 50
24.10.2020 16:00:00 -5,7 -6,6 4 2 ZZO 1003,6 50
24.10.2020 15:00:00 -1,7 -5,5 4 2 WZW 1003,0 50
24.10.2020 14:00:00 0,6 -4,6 4 2 Z 1003,0 40
24.10.2020 13:00:00 0,3 -3,9 11 6 ZO 1002,8 50
24.10.2020 12:00:00 0,4 -4,1 4 2 Z 1002,6 45
24.10.2020 11:00:00 -1,3 -4,0 7 4 ZO 1002,8 45
24.10.2020 10:00:00 -2,8 -4,4 11 6 ZZO 1002,9 35
24.10.2020 09:00:00 -4,4 -5,4 11 6 ZZO 1002,7 40
24.10.2020 08:00:00 -6,4 -7,6 7 4 ZZO 1002,5 45
24.10.2020 07:00:00 -4,9 -5,9 7 4 ZO 1001,9 45
24.10.2020 06:00:00 -3,4 -5,6 4 2 WZW 1001,5 50
24.10.2020 05:00:00 -2,2 -4,1 14 8 NW 1001,0 50
24.10.2020 04:00:00 -2,2 -4,2 0 0 N 1001,1 50
24.10.2020 03:00:00 -0,7 -3,1 14 8 WNW 1001,1 50
24.10.2020 02:00:00 -1,1 -3,5 4 2 W 1001,6 50
24.10.2020 01:00:00 -2,5 -4,5 7 4 NW 1001,2 50
24.10.2020 00:00:00 -0,9 -4,1 14 8 NNW 1000,8 50
23.10.2020 23:00:00 0,5 -2,9 7 4 WNW 1001,0 50
23.10.2020 22:00:00 0,5 -3,1 14 8 NW 1000,3 50
23.10.2020 21:00:00 0,6 -2,5 4 2 W 1000,0 50
23.10.2020 20:00:00 0,5 -2,4 4 2 N 999,6 50
23.10.2020 19:00:00 0,4 -2,3 7 4 N 999,2 50
23.10.2020 18:00:00 -0,6 -2,0 7 4 NNW 999,1 50
23.10.2020 17:00:00 0,7 -2,0 14 8 WNW 998,7 50
23.10.2020 16:00:00 0,7 -2,0 22 12 WNW 998,2 20
23.10.2020 15:00:00 0,8 -1,9 14 8 WNW 998,2 16
23.10.2020 14:00:00 1,0 -1,9 22 12 W 998,0 11
23.10.2020 13:00:00 0,8 -2,8 25 14 W 998,1 50
23.10.2020 12:00:00 1,4 -2,9 25 14 W 997,8 40
23.10.2020 11:00:00 0,4 -3,3 11 6 NW 997,8 50
23.10.2020 10:00:00 0,1 -2,4 7 4 NW 997,8 50
23.10.2020 09:00:00 -1,3 -3,3 4 2 ONO 997,8 21
23.10.2020 08:00:00 -2,4 -3,8 4 2 W 997,9 50
23.10.2020 07:00:00 -1,6 -3,6 4 2 W 997,7 50
23.10.2020 06:00:00 -2,2 -3,8 4 2 ZZO 997,9 50
23.10.2020 05:00:00 -3,3 -4,6 4 2 N 998,3 50
23.10.2020 04:00:00 -5,2 -6,2 7 4 W 998,9 45
23.10.2020 03:00:00 -5,9 -6,6 4 2 ZO 999,1 40
23.10.2020 02:00:00 -5,8 -6,6 4 2 ZZW 999,2 50
23.10.2020 01:00:00 -5,8 -7,0 4 2 NW 999,3 50
23.10.2020 00:00:00 -5,8 -7,3 4 2 NO 999,6 50
22.10.2020 23:00:00 -3,5 -5,8 0 0 N 999,3 50
22.10.2020 22:00:00 -2,6 -5,1 4 2 NNW 999,1 50
22.10.2020 21:00:00 -3,4 -5,0 7 4 N 999,2 50
22.10.2020 20:00:00 -5,6 -6,4 0 0 N 999,6 50
22.10.2020 19:00:00 -6,9 -8,1 4 2 O 999,7 50
22.10.2020 18:00:00 -4,4 -6,2 7 4 NW 999,6 50
22.10.2020 17:00:00 -3,2 -5,7 4 2 ZO 999,4 50
22.10.2020 16:00:00 -2,9 -5,4 7 4 NW 999,4 17
22.10.2020 15:00:00 -2,7 -5,8 4 2 NNW 999,5 45
22.10.2020 14:00:00 -2,6 -5,9 0 0 N 999,5 21
22.10.2020 13:00:00 -2,6 -5,9 4 2 ZO 999,9 30
22.10.2020 12:00:00 -2,8 -5,7 11 6 ZZO 1000,0 45
22.10.2020 11:00:00 -2,9 -5,5 11 6 ZZO 1000,2 50
22.10.2020 10:00:00 -3,1 -6,1 7 4 ZO 1000,3 45
22.10.2020 09:00:00 -3,3 -5,8 7 4 ZZO 1000,6 50
22.10.2020 08:00:00 -3,6 -6,2 7 4 ZO 1000,5 50
22.10.2020 07:00:00 -3,7 -6,5 4 2 OZO 1000,3 50
22.10.2020 06:00:00 -3,6 -6,4 11 6 ZZO 1000,6 50
22.10.2020 05:00:00 -3,5 -6,4 7 4 ZO 1000,8 50
22.10.2020 04:00:00 -3,3 -6,4 11 6 ZZO 1001,0 50
22.10.2020 03:00:00 -3,2 -6,3 11 6 ZZO 1001,4 50
22.10.2020 02:00:00 -2,9 -6,0 7 4 ZO 1001,7 50
22.10.2020 01:00:00 -2,9 -6,4 11 6 ZZO 1002,0 50
22.10.2020 00:00:00 -2,6 -6,1 14 8 Z 1002,2 50

tt = temperatuur
td = dauwpunt
ff = windsnelheid
dd = windrichting
ppp = luchtdruk
vv = zicht

Weerstations in de omgeving